Torna al catalogo

STARLINK-2084

AttivoComunicazioniVLEO
NORAD 47368·PAYLOAD·🇺🇸 United States

Lanciato Jan 20, 2021 da Cape Canaveral Space Force Station

Loading…

Prossimi Passaggi (prossime 24 ore)

TLE

AggiornatoSource: CelesTrak SupGP

Epoca: Sep 14, 2026, 13:38 UTC

1 47368C 21005V   26257.56854167  .00002794  00000+0  89907-4 0  2575
2 47368  53.1577 263.5108 0001196  77.0307 265.5019 15.31679010    16

Traccia STARLINK-2084 in tempo reale con AllMySat

Download on the App Store